STARLINK-35278, 65902

Orbit data source: Space-Track

STARLINK-35278, 65902 is a payload satellite owned by SpaceX/Seattle (US) in LEO that was launched on Tue, 07 Oct 2025 UTC via an FALCON 9 launch vehicle from the Air Force Eastern Test Range (AFETR). Payload-class satellites include a variety of spacecraft equipped with specific instruments for various scientific and technological missions. These include communications satellites like Starlink; space stations such as the ISS; scientific satellites like the Hubble; Earth observation satellites from companies like Planet Labs, Umbra, and HawkEye 360; GPS; miniature CubeSats for education and research; and military/defense satellites.

Loading next visibility...
Identifier
65902, 2025-224W
Orbit
LEO
Country
Flag of USUS
Related business
Manufacturer
SpaceX/Seattle
Mission
Operational spacecraft
Bus & Motor
STARLINK V2MO, Unknown motor
Mass
575 kg wet, ~530 kg dry
Launch date (UTC)
2025-10-07 (2 weeks ago)
Launch vehicle
FALCON 9
Launch site
Air Force Eastern Test Range (AFETR)
Object type
Payload
Rocket body
Debris
Shape & HBR
Unknown
Radar Cross Section
RCS unknown

Expand to show TLE details & history
Last TLE update: 6 hours ago

TLE from 6 hours ago
0 STARLINK-35278
1 65902U 25224W   25293.16670139 -.01452610  00000-0 -74212-2 0  9990
2 65902  53.1502 308.6957 0000927  84.0208 316.1231 15.83261021  3298
Epoch: 2025-10-20T04:00Z
TLE epoch observation values (Epoch: 2025-10-20T04:00:03.000Z)
Latitude
31.15262°
Longitude
-113.41509°
Altitude
322.666 km
Speed
7.719 km/s
True Right ascension
22h 21m 52s
True Declination
30° 59' 27"
Sunlit
Object was in full shadow at epoch
Visualization orbit readout
Latitude
Unknown
Longitude
Unknown
Altitude
Unknown
Speed
Unknown
Apparent Right ascension
Unknown
Apparent Declination
Unknown
Sunlit
N/A
Visualization observer readout
Local Sidereal Time
05:17:29
Azimuth
Unknown
Elevation
Unknown
Doppler factor
Unknown
Orbital elements
Apogee altitude
322.111 km
Perigee altitude
320.868 km
Semi-major axis
6,699.627 km
Eccentricity
0.00009
Inclination
53.1502°
RAAN
308.6957°
Arg. of periapsis
84.0208°
True anomaly
316.11574°
Mean anomaly
316.1231°
Eccentric anomaly
316.11942°
Mean motion
3.95792 °/min
Orbital period
90.96 mins
BSTAR
-0.0074212
Loading maneuver chart data...
Computing Atmospheric mass density...
Loading historical data...
Loading historical data...
Loading historical data...
Loading historical data...
Loading historical data...
Loading historical data...
Loading historical data...

Documentation

Showing up to 5 results
|